Etusivu
METAR-TAF:

METAR-TAF

Lentoasemat :

Municipal_Airport

Socorro, New Mexico, Yhdysvallat

Leveyspiiri: 34-01N, Pituuspiiri: 106-54W, korkeus merenpinnasta: 1478 m

Tämänhetkinen sää

Tämä raportti tehtiin 17 minuuttia sitten, kello 11.35 UTC
Tuuli 5 kn pohjoisen/luoteesta
Lämpötila 3°C
Kosteus 41%
Ilmanpaine 1020 hPa
Näkyvyys: 16.1 km
selkeää

METAR: KONM 181135Z AUTO 33005KT 10SM CLR 03/M09 A3013 RMK AO2 T00341087

Aika: 04:52 (11:52 UTC)


TAF: puuttuu

Säähavainnot ja -ennusteet yli 4000 lentoasemalta (METAR- ja TAF-raportit).

Käytössä olevat sääasemat on merkitty karttaan keltaisilla ja punaisilla pisteillä.

Aseta hiiri pisteen päälle nähdäksesi sääaseman nimen.

Klikkaa sitten nähdäksesi säähavainnot ja -ennusteet.

Kartan vaihtaminen: klikkaa mustalla rastilla varustettuja vihreitä pisteitä, niin voit zoomata sisään; viivalla varustettua vihreää pistettä, niin voit zoomata ulos tai vihreitä nuolia, niin pääset viereisille kartoille.


METAR-TAF: